| time (UTC) | temp F | wind direction | speed MPH | gust MPH | rain 1hr in | rain 24hr in | rain mn in | humidity % | barometer mb |
| 20260507165548 | 54 | 321 | 6.0 | 11.0 | 0.00 | 0.00 | 0.00 | 49 | 1010.8 |
| 20260507164534 | 54 | 207 | 3.0 | 12.0 | 0.00 | 0.00 | 0.00 | 50 | 1010.8 |
| 20260507164050 | 54 | 211 | 5.0 | 13.0 | 0.00 | 0.00 | 0.00 | 50 | 1010.9 |
| 20260507163545 | 54 | 209 | 5.0 | 10.0 | 0.00 | 0.00 | 0.00 | 49 | 1010.9 |
| 20260507162533 | 53 | 109 | 4.0 | 11.0 | 0.00 | 0.00 | 0.00 | 49 | 1010.7 |
| 20260507162046 | 53 | 205 | 4.0 | 11.0 | 0.00 | 0.00 | 0.00 | 49 | 1010.7 |
| 20260507161029 | 53 | 268 | 4.0 | 10.0 | 0.00 | 0.00 | 0.00 | 50 | 1010.6 |
| 20260507160536 | 53 | 269 | 4.0 | 11.0 | 0.00 | 0.00 | 0.00 | 51 | 1010.6 |
| 20260507155525 | 53 | 236 | 6.0 | 12.0 | 0.00 | 0.00 | 0.00 | 50 | 1010.6 |
| 20260507155053 | 53 | 258 | 4.0 | 10.0 | 0.00 | 0.00 | 0.00 | 51 | 1010.6 |
| 20260507154547 | 53 | 319 | 6.0 | 10.0 | 0.00 | 0.00 | 0.00 | 51 | 1010.6 |
| 20260507154056 | 53 | 129 | 3.0 | 10.0 | 0.00 | 0.00 | 0.00 | 52 | 1010.6 |
| 20260507153107 | 53 | 268 | 3.0 | 8.0 | 0.00 | 0.00 | 0.00 | 53 | 1010.6 |
| 20260507152101 | 52 | 190 | 4.0 | 9.0 | 0.00 | 0.00 | 0.00 | 52 | 1010.5 |
| 20260507151613 | 52 | 202 | 4.0 | 9.0 | 0.00 | 0.00 | 0.00 | 54 | 1010.5 |
| 20260507150536 | 52 | 312 | 5.0 | 8.0 | 0.00 | 0.00 | 0.00 | 54 | 1010.6 |
| 20260507150044 | 52 | 245 | 2.0 | 10.0 | 0.00 | 0.00 | 0.00 | 54 | 1010.6 |
| 20260507145539 | 51 | 251 | 3.0 | 10.0 | 0.00 | 0.00 | 0.00 | 56 | 1010.6 |
| 20260507145110 | 51 | 256 | 5.0 | 8.0 | 0.00 | 0.00 | 0.00 | 55 | 1010.6 |
| 20260507144557 | 51 | 313 | 4.0 | 8.0 | 0.00 | 0.00 | 0.00 | 57 | 1010.6 |
| 20260507143540 | 50 | 192 | 4.0 | 9.0 | 0.00 | 0.00 | 0.00 | 56 | 1010.6 |
| 20260507142529 | 50 | 347 | 4.0 | 11.0 | 0.00 | 0.00 | 0.00 | 59 | 1010.7 |
| 20260507142043 | 50 | 267 | 5.0 | 11.0 | 0.00 | 0.00 | 0.00 | 58 | 1010.7 |
| 20260507141603 | 50 | 245 | 3.0 | 9.0 | 0.00 | 0.00 | 0.00 | 59 | 1010.7 |
| 20260507141110 | 50 | 302 | 4.0 | 9.0 | 0.00 | 0.00 | 0.00 | 60 | 1010.7 |
| 20260507140520 | 50 | 238 | 5.0 | 9.0 | 0.00 | 0.00 | 0.00 | 60 | 1010.7 |
| 20260507140035 | 50 | 300 | 3.0 | 8.0 | 0.00 | 0.00 | 0.00 | 61 | 1010.7 |
| 20260507135551 | 50 | 282 | 3.0 | 9.0 | 0.00 | 0.00 | 0.00 | 62 | 1010.9 |
| 20260507135120 | 50 | 207 | 4.0 | 9.0 | 0.00 | 0.00 | 0.00 | 63 | 1010.9 |
| 20260507134554 | 50 | 203 | 3.0 | 6.0 | 0.00 | 0.00 | 0.00 | 64 | 1010.9 |
| 20260507133538 | 49 | 287 | 4.0 | 8.0 | 0.00 | 0.00 | 0.00 | 64 | 1010.8 |
| 20260507133040 | 49 | 225 | 2.0 | 6.0 | 0.00 | 0.00 | 0.00 | 66 | 1010.8 |
| 20260507132022 | 49 | 300 | 4.0 | 8.0 | 0.00 | 0.00 | 0.00 | 67 | 1011.0 |
| 20260507131531 | 48 | 217 | 3.0 | 7.0 | 0.00 | 0.00 | 0.00 | 69 | 1011.0 |
| 20260507131059 | 48 | 258 | 3.0 | 7.0 | 0.00 | 0.00 | 0.00 | 69 | 1011.0 |
| 20260507130543 | 47 | 282 | 2.0 | 7.0 | 0.00 | 0.00 | 0.00 | 71 | 1011.0 |
| 20260507130051 | 47 | 332 | 4.0 | 7.0 | 0.00 | 0.00 | 0.00 | 71 | 1011.0 |
| 20260507125041 | 46 | 339 | 3.0 | 7.0 | 0.00 | 0.00 | 0.00 | 73 | 1010.9 |
| 20260507124040 | 46 | 327 | 6.0 | 8.0 | 0.00 | 0.00 | 0.00 | 75 | 1010.9 |
| 20260507123547 | 45 | 299 | 3.0 | 7.0 | 0.00 | 0.00 | 0.00 | 76 | 1010.9 |
| 20260507123102 | 45 | 312 | 3.0 | 6.0 | 0.00 | 0.00 | 0.00 | 76 | 1010.9 |
| 20260507122632 | 45 | 275 | 3.0 | 7.0 | 0.00 | 0.00 | 0.00 | 78 | 1011.0 |
| 20260507122018 | 44 | 317 | 3.0 | 7.0 | 0.00 | 0.00 | 0.00 | 79 | 1011.0 |
| 20260507121532 | 44 | 267 | 3.0 | 6.0 | 0.00 | 0.00 | 0.00 | 80 | 1011.0 |
| 20260507121103 | 44 | 345 | 2.0 | 7.0 | 0.00 | 0.00 | 0.00 | 80 | 1010.8 |
| 20260507120031 | 43 | 331 | 1.0 | 5.0 | 0.00 | 0.00 | 0.00 | 81 | 1010.8 |
| 20260507115604 | 42 | 286 | 3.0 | 5.0 | 0.00 | 0.00 | 0.00 | 83 | 1010.9 |
| 20260507114536 | 42 | 269 | 2.0 | 6.0 | 0.00 | 0.00 | 0.00 | 84 | 1010.9 |
| 20260507114041 | 41 | 306 | 2.0 | 6.0 | 0.00 | 0.00 | 0.00 | 85 | 1010.8 |
| 20260507113601 | 41 | 250 | 2.0 | 4.0 | 0.00 | 0.00 | 0.00 | 86 | 1010.8 |
| 20260507113110 | 40 | 314 | 1.0 | 4.0 | 0.00 | 0.00 | 0.00 | 86 | 1010.8 |
| 20260507112027 | 39 | 330 | 0.0 | 2.0 | 0.00 | 0.00 | 0.00 | 87 | 1010.7 |
| 20260507111547 | 39 | 330 | 0.0 | 0.0 | 0.00 | 0.00 | 0.00 | 87 | 1010.7 |
| 20260507110527 | 39 | 330 | 0.0 | 0.0 | 0.00 | 0.00 | 0.00 | 86 | 1010.6 |
| 20260507110042 | 39 | 330 | 0.0 | 0.0 | 0.00 | 0.00 | 0.00 | 86 | 1010.6 |
| 20260507105033 | 39 | 330 | 0.0 | 0.0 | 0.00 | 0.00 | 0.00 | 86 | 1010.4 |
| 20260507104549 | 39 | 330 | 0.0 | 0.0 | 0.00 | 0.00 | 0.00 | 86 | 1010.4 |
| 20260507104109 | 39 | 330 | 0.0 | 0.0 | 0.00 | 0.00 | 0.00 | 86 | 1010.4 |
| 20260507103615 | 39 | 330 | 0.0 | 0.0 | 0.00 | 0.00 | 0.00 | 86 | 1010.4 |
| 20260507103026 | 39 | 330 | 0.0 | 0.0 | 0.00 | 0.00 | 0.00 | 86 | 1010.4 |
| 20260507102551 | 39 | 330 | 0.0 | 0.0 | 0.00 | 0.00 | 0.00 | 86 | 1010.3 |
| 20260507102051 | 39 | 330 | 0.0 | 0.0 | 0.00 | 0.00 | 0.00 | 86 | 1010.3 |
| 20260507101050 | 39 | 330 | 0.0 | 0.0 | 0.00 | 0.00 | 0.00 | 86 | 1010.2 |
| 20260507100547 | 39 | 330 | 0.0 | 0.0 | 0.00 | 0.00 | 0.00 | 86 | 1010.2 |
| 20260507100057 | 39 | 330 | 0.0 | 0.0 | 0.00 | 0.00 | 0.00 | 86 | 1010.2 |
| 20260507095606 | 39 | 330 | 0.0 | 0.0 | 0.00 | 0.01 | 0.00 | 86 | 1010.1 |
| 20260507095101 | 39 | 330 | 0.0 | 0.0 | 0.00 | 0.01 | 0.00 | 86 | 1010.1 |
| 20260507094033 | 39 | 330 | 0.0 | 0.0 | 0.00 | 0.01 | 0.00 | 85 | 1010.1 |
| 20260507093544 | 39 | 330 | 0.0 | 0.0 | 0.00 | 0.01 | 0.00 | 85 | 1010.1 |
| 20260507092520 | 39 | 330 | 0.0 | 0.0 | 0.00 | 0.01 | 0.00 | 85 | 1010.1 |
| 20260507092033 | 39 | 330 | 0.0 | 0.0 | 0.00 | 0.01 | 0.00 | 85 | 1010.1 |
| 20260507091540 | 39 | 330 | 0.0 | 0.0 | 0.00 | 0.01 | 0.00 | 84 | 1010.1 |
| 20260507091101 | 39 | 330 | 0.0 | 0.0 | 0.00 | 0.01 | 0.00 | 84 | 1010.1 |
| 20260507090604 | 39 | 330 | 0.0 | 0.0 | 0.00 | 0.01 | 0.00 | 84 | 1010.1 |
| 20260507085531 | 39 | 330 | 0.0 | 0.0 | 0.00 | 0.08 | 0.00 | 84 | 1010.1 |
| 20260507084532 | 39 | 330 | 0.0 | 0.0 | 0.00 | 0.08 | 0.00 | 84 | 1010.1 |
| 20260507084049 | 39 | 330 | 0.0 | 0.0 | 0.00 | 0.08 | 0.00 | 84 | 1010.1 |
| 20260507083551 | 39 | 330 | 0.0 | 0.0 | 0.00 | 0.08 | 0.00 | 83 | 1010.1 |
| 20260507083106 | 39 | 330 | 0.0 | 0.0 | 0.00 | 0.08 | 0.00 | 83 | 1010.1 |
| 20260507082522 | 40 | 330 | 0.0 | 0.0 | 0.00 | 0.08 | 0.00 | 83 | 1010.2 |
| 20260507082026 | 39 | 330 | 0.0 | 0.0 | 0.00 | 0.08 | 0.00 | 83 | 1010.2 |
| 20260507081540 | 40 | 330 | 0.0 | 0.0 | 0.00 | 0.08 | 0.00 | 83 | 1010.2 |
| 20260507081050 | 40 | 330 | 0.0 | 0.0 | 0.00 | 0.08 | 0.00 | 83 | 1010.2 |
| 20260507080038 | 40 | 330 | 0.0 | 0.0 | 0.00 | 0.08 | 0.00 | 83 | 1010.2 |
| 20260507075550 | 40 | 330 | 0.0 | 0.0 | 0.00 | 0.11 | 0.00 | 83 | 1010.1 |
| 20260507074517 | 40 | 330 | 0.0 | 0.0 | 0.00 | 0.11 | 0.00 | 83 | 1010.1 |
| 20260507074027 | 40 | 330 | 0.0 | 0.0 | 0.00 | 0.11 | 0.00 | 83 | 1010.1 |
| 20260507073528 | 40 | 330 | 0.0 | 0.0 | 0.00 | 0.11 | 0.00 | 83 | 1010.1 |
| 20260507073044 | 40 | 330 | 0.0 | 0.0 | 0.00 | 0.11 | 0.00 | 82 | 1010.1 |
| 20260507072547 | 40 | 330 | 0.0 | 0.0 | 0.00 | 0.11 | 0.00 | 82 | 1010.1 |
| 20260507072054 | 40 | 330 | 0.0 | 0.0 | 0.00 | 0.11 | 0.00 | 82 | 1010.1 |
| 20260507071030 | 40 | 330 | 0.0 | 0.0 | 0.00 | 0.11 | 0.00 | 82 | 1010.2 |
| 20260507070546 | 40 | 330 | 0.0 | 0.0 | 0.00 | 0.11 | 0.00 | 82 | 1010.2 |
| 20260507070110 | 40 | 330 | 0.0 | 0.0 | 0.00 | 0.11 | 0.00 | 82 | 1010.2 |
| 20260507065526 | 40 | 330 | 0.0 | 0.0 | 0.00 | 0.21 | 0.00 | 82 | 1010.2 |
| 20260507065047 | 40 | 330 | 0.0 | 0.0 | 0.00 | 0.21 | 0.00 | 81 | 1010.2 |
| 20260507064543 | 40 | 330 | 0.0 | 0.0 | 0.00 | 0.21 | 0.00 | 81 | 1010.2 |
| 20260507063525 | 40 | 330 | 0.0 | 0.0 | 0.00 | 0.21 | 0.00 | 81 | 1010.2 |
| 20260507063051 | 40 | 330 | 0.0 | 0.0 | 0.00 | 0.21 | 0.00 | 81 | 1010.2 |
| 20260507062559 | 40 | 330 | 0.0 | 0.0 | 0.00 | 0.21 | 0.00 | 81 | 1010.3 |
| 20260507061517 | 40 | 330 | 0.0 | 0.0 | 0.00 | 0.21 | 0.00 | 81 | 1010.3 |
| 20260507061033 | 40 | 330 | 0.0 | 0.0 | 0.00 | 0.21 | 0.00 | 81 | 1010.4 |
| 20260507060607 | 40 | 330 | 0.0 | 0.0 | 0.00 | 0.21 | 0.00 | 80 | 1010.4 |
| 20260507060020 | 40 | 330 | 0.0 | 0.0 | 0.00 | 0.21 | 0.00 | 80 | 1010.4 |
| 20260507055518 | 40 | 330 | 0.0 | 0.0 | 0.00 | 0.24 | 0.00 | 81 | 1010.6 |
| 20260507055045 | 41 | 330 | 0.0 | 0.0 | 0.00 | 0.24 | 0.00 | 81 | 1010.6 |
| 20260507054532 | 41 | 330 | 0.0 | 0.0 | 0.00 | 0.24 | 0.00 | 81 | 1010.6 |
| 20260507054022 | 41 | 330 | 0.0 | 0.0 | 0.00 | 0.24 | 0.00 | 81 | 1010.7 |
| 20260507053526 | 41 | 330 | 0.0 | 0.0 | 0.00 | 0.24 | 0.00 | 81 | 1010.7 |
| 20260507053018 | 41 | 330 | 0.0 | 0.0 | 0.00 | 0.24 | 0.00 | 80 | 1010.7 |
| 20260507052541 | 41 | 330 | 0.0 | 0.0 | 0.00 | 0.24 | 0.00 | 80 | 1010.7 |
| 20260507052033 | 41 | 330 | 0.0 | 0.0 | 0.00 | 0.24 | 0.00 | 80 | 1010.7 |
| 20260507051522 | 41 | 330 | 0.0 | 0.0 | 0.00 | 0.24 | 0.00 | 79 | 1010.7 |
| 20260507051033 | 41 | 330 | 0.0 | 0.0 | 0.00 | 0.24 | 0.00 | 79 | 1010.7 |
| 20260507050552 | 41 | 330 | 0.0 | 0.0 | 0.00 | 0.24 | 0.00 | 78 | 1010.7 |
| 20260507050028 | 42 | 330 | 0.0 | 0.0 | 0.00 | 0.24 | 0.00 | 78 | 1010.7 |
| 20260507045518 | 42 | 330 | 0.0 | 0.0 | 0.00 | 0.24 | 0.00 | 77 | 1010.7 |
| 20260507045030 | 42 | 330 | 0.0 | 0.0 | 0.00 | 0.24 | 0.00 | 77 | 1010.7 |
| 20260507044524 | 42 | 330 | 0.0 | 0.0 | 0.00 | 0.24 | 0.00 | 77 | 1010.7 |
| 20260507044020 | 42 | 330 | 0.0 | 0.0 | 0.00 | 0.24 | 0.00 | 77 | 1010.7 |
| 20260507043538 | 42 | 330 | 0.0 | 0.0 | 0.00 | 0.24 | 0.00 | 77 | 1010.7 |
| 20260507043021 | 42 | 330 | 0.0 | 0.0 | 0.00 | 0.24 | 0.00 | 76 | 1010.7 |
| 20260507042534 | 42 | 330 | 0.0 | 0.0 | 0.00 | 0.24 | 0.00 | 75 | 1010.7 |
| 20260507042028 | 42 | 330 | 0.0 | 0.0 | 0.00 | 0.24 | 0.00 | 75 | 1010.7 |
| 20260507041518 | 42 | 330 | 0.0 | 0.0 | 0.00 | 0.24 | 0.00 | 75 | 1010.7 |
| 20260507041043 | 42 | 330 | 0.0 | 0.0 | 0.00 | 0.24 | 0.00 | 75 | 1010.8 |
| 20260507040530 | 43 | 330 | 0.0 | 0.0 | 0.00 | 0.24 | 0.00 | 75 | 1010.8 |
| 20260507040056 | 43 | 330 | 0.0 | 0.0 | 0.00 | 0.24 | 0.00 | 75 | 1010.8 |
| 20260507035528 | 43 | 330 | 0.0 | 0.0 | 0.00 | 0.29 | 0.24 | 74 | 1010.8 |
| 20260507035039 | 43 | 330 | 0.0 | 0.0 | 0.00 | 0.29 | 0.24 | 74 | 1010.8 |
| 20260507034547 | 43 | 330 | 0.0 | 0.0 | 0.00 | 0.29 | 0.24 | 73 | 1010.8 |
| 20260507034113 | 43 | 330 | 0.0 | 0.0 | 0.00 | 0.29 | 0.24 | 72 | 1011.0 |
| 20260507033522 | 44 | 330 | 0.0 | 0.0 | 0.00 | 0.29 | 0.24 | 72 | 1011.0 |
| 20260507033022 | 44 | 330 | 0.0 | 0.0 | 0.00 | 0.29 | 0.24 | 72 | 1011.0 |
| 20260507032535 | 44 | 330 | 0.0 | 0.0 | 0.00 | 0.29 | 0.24 | 71 | 1011.1 |
| 20260507032053 | 44 | 330 | 0.0 | 0.0 | 0.00 | 0.29 | 0.24 | 70 | 1011.1 |
| 20260507031034 | 45 | 330 | 0.0 | 0.0 | 0.00 | 0.29 | 0.24 | 70 | 1011.2 |
| 20260507030527 | 45 | 330 | 0.0 | 0.0 | 0.00 | 0.29 | 0.24 | 70 | 1011.2 |
| 20260507030048 | 45 | 330 | 0.0 | 0.0 | 0.00 | 0.29 | 0.24 | 69 | 1011.2 |
| 20260507025558 | 45 | 330 | 0.0 | 0.0 | 0.00 | 0.38 | 0.24 | 67 | 1011.2 |
| 20260507025101 | 46 | 330 | 0.0 | 0.0 | 0.00 | 0.38 | 0.24 | 66 | 1011.2 |
| 20260507024032 | 46 | 330 | 0.0 | 0.0 | 0.00 | 0.38 | 0.24 | 65 | 1011.1 |
| 20260507023025 | 47 | 330 | 0.0 | 0.0 | 0.00 | 0.38 | 0.24 | 64 | 1011.1 |
| 20260507022528 | 47 | 330 | 0.0 | 0.0 | 0.00 | 0.38 | 0.24 | 64 | 1010.8 |
| 20260507022036 | 47 | 330 | 0.0 | 0.0 | 0.00 | 0.38 | 0.24 | 64 | 1010.8 |
| 20260507021548 | 48 | 330 | 0.0 | 0.0 | 0.00 | 0.38 | 0.24 | 64 | 1010.8 |
| 20260507021045 | 48 | 330 | 0.0 | 0.0 | 0.00 | 0.38 | 0.24 | 64 | 1010.7 |
| 20260507020018 | 49 | 330 | 0.0 | 0.0 | 0.00 | 0.38 | 0.24 | 61 | 1010.7 |
| 20260507015535 | 50 | 330 | 0.0 | 0.0 | 0.00 | 0.52 | 0.24 | 61 | 1010.7 |
| 20260507015039 | 50 | 330 | 0.0 | 0.0 | 0.00 | 0.52 | 0.24 | 61 | 1010.7 |
| 20260507014545 | 50 | 330 | 0.0 | 0.0 | 0.00 | 0.52 | 0.24 | 60 | 1010.7 |
| 20260507014045 | 51 | 330 | 0.0 | 0.0 | 0.00 | 0.52 | 0.24 | 60 | 1010.7 |
| 20260507013036 | 51 | 330 | 0.0 | 0.0 | 0.00 | 0.52 | 0.24 | 59 | 1010.7 |
| 20260507012546 | 51 | 330 | 0.0 | 0.0 | 0.00 | 0.52 | 0.24 | 59 | 1010.6 |
| 20260507011519 | 52 | 330 | 0.0 | 2.0 | 0.00 | 0.52 | 0.24 | 57 | 1010.6 |
| 20260507010132 | 52 | 330 | 0.0 | 2.0 | 0.00 | 0.52 | 0.24 | 57 | 1010.3 |
| 20260507005612 | 52 | 330 | 0.0 | 1.0 | 0.00 | 0.59 | 0.24 | 56 | 1010.2 |
| 20260507005120 | 52 | 330 | 0.0 | 2.0 | 0.00 | 0.59 | 0.24 | 56 | 1010.2 |
| 20260507004613 | 52 | 330 | 0.0 | 3.0 | 0.00 | 0.59 | 0.24 | 56 | 1010.2 |
| 20260507004023 | 52 | 330 | 0.0 | 3.0 | 0.00 | 0.59 | 0.24 | 56 | 1010.0 |
| 20260507003531 | 52 | 355 | 0.0 | 1.0 | 0.00 | 0.59 | 0.24 | 55 | 1010.0 |
| 20260507003037 | 52 | 355 | 0.0 | 3.0 | 0.00 | 0.59 | 0.24 | 55 | 1010.0 |
| 20260507002531 | 52 | 355 | 0.0 | 4.0 | 0.00 | 0.59 | 0.24 | 55 | 1009.9 |
| 20260507002051 | 52 | 355 | 1.0 | 4.0 | 0.00 | 0.59 | 0.24 | 54 | 1009.9 |
| 20260507001016 | 53 | 336 | 1.0 | 5.0 | 0.00 | 0.59 | 0.24 | 54 | 1009.9 |
| 20260507000540 | 53 | 329 | 4.0 | 6.0 | 0.00 | 0.59 | 0.24 | 54 | 1009.9 |
| 20260507000058 | 53 | 346 | 2.0 | 6.0 | 0.00 | 0.59 | 0.24 | 54 | 1009.9 |
| 20260506235545 | 53 | 350 | 3.0 | 6.0 | 0.00 | 0.74 | 0.24 | 54 | 1009.6 |
| 20260506234527 | 53 | 302 | 2.0 | 5.0 | 0.00 | 0.74 | 0.24 | 54 | 1009.6 |
| 20260506233533 | 53 | 331 | 4.0 | 7.0 | 0.00 | 0.74 | 0.24 | 54 | 1009.6 |
| 20260506233057 | 54 | 14 | 3.0 | 6.0 | 0.00 | 0.74 | 0.24 | 55 | 1009.6 |
| 20260506232019 | 54 | 336 | 2.0 | 7.0 | 0.00 | 0.74 | 0.24 | 55 | 1010.1 |
| 20260506231546 | 54 | 276 | 3.0 | 7.0 | 0.00 | 0.74 | 0.24 | 53 | 1010.1 |
| 20260506231101 | 54 | 325 | 4.0 | 8.0 | 0.00 | 0.74 | 0.24 | 54 | 1010.1 |
| 20260506230032 | 54 | 18 | 3.0 | 7.0 | 0.00 | 0.74 | 0.24 | 54 | 1010.1 |
| 20260506225542 | 54 | 331 | 2.0 | 8.0 | 0.00 | 0.80 | 0.24 | 53 | 1010.1 |
| 20260506224541 | 54 | 355 | 3.0 | 7.0 | 0.00 | 0.80 | 0.24 | 53 | 1010.1 |
| 20260506223530 | 54 | 304 | 4.0 | 7.0 | 0.00 | 0.80 | 0.24 | 53 | 1010.1 |
| 20260506222534 | 54 | 337 | 2.0 | 6.0 | 0.00 | 0.80 | 0.24 | 55 | 1010.1 |
| 20260506222057 | 54 | 343 | 4.0 | 6.0 | 0.00 | 0.80 | 0.24 | 55 | 1010.1 |
| 20260506221555 | 54 | 336 | 3.0 | 8.0 | 0.00 | 0.80 | 0.24 | 55 | 1010.1 |
| 20260506220538 | 54 | 336 | 5.0 | 8.0 | 0.00 | 0.80 | 0.24 | 54 | 1009.8 |
| 20260506220052 | 54 | 332 | 5.0 | 8.0 | 0.00 | 0.80 | 0.24 | 54 | 1009.8 |
| 20260506215604 | 55 | 318 | 5.0 | 8.0 | 0.00 | 1.05 | 0.24 | 54 | 1009.6 |
| 20260506215103 | 55 | 315 | 3.0 | 8.0 | 0.00 | 1.05 | 0.24 | 55 | 1009.6 |
| 20260506214040 | 54 | 338 | 2.0 | 8.0 | 0.00 | 1.05 | 0.24 | 54 | 1009.4 |
| 20260506213545 | 54 | 360 | 6.0 | 10.0 | 0.00 | 1.05 | 0.24 | 54 | 1009.4 |
| 20260506212524 | 55 | 340 | 4.0 | 11.0 | 0.00 | 1.05 | 0.24 | 55 | 1009.3 |
| 20260506212022 | 55 | 295 | 5.0 | 8.0 | 0.00 | 1.05 | 0.24 | 54 | 1009.3 |
| 20260506211021 | 55 | 311 | 4.0 | 9.0 | 0.00 | 1.05 | 0.24 | 55 | 1009.5 |
| 20260506210537 | 55 | 313 | 4.0 | 9.0 | 0.00 | 1.05 | 0.24 | 55 | 1009.5 |
| 20260506210039 | 55 | 312 | 3.0 | 9.0 | 0.00 | 1.05 | 0.24 | 56 | 1009.5 |
| 20260506205021 | 55 | 343 | 3.0 | 8.0 | 0.00 | 1.06 | 0.24 | 55 | 1009.2 |
| 20260506204529 | 55 | 355 | 2.0 | 8.0 | 0.00 | 1.06 | 0.24 | 56 | 1009.2 |
| 20260506204100 | 55 | 302 | 3.0 | 9.0 | 0.00 | 1.06 | 0.24 | 55 | 1009.0 |
| 20260506203629 | 55 | 333 | 5.0 | 9.0 | 0.00 | 1.06 | 0.24 | 56 | 1009.0 |
| 20260506203019 | 55 | 5 | 3.0 | 8.0 | 0.00 | 1.06 | 0.24 | 56 | 1009.0 |
| 20260506202542 | 55 | 329 | 4.0 | 10.0 | 0.00 | 1.06 | 0.24 | 56 | 1009.1 |
| 20260506202057 | 55 | 281 | 5.0 | 10.0 | 0.00 | 1.06 | 0.24 | 55 | 1009.1 |
| 20260506201605 | 55 | 5 | 4.0 | 9.0 | 0.00 | 1.06 | 0.24 | 56 | 1009.1 |
| 20260506201110 | 55 | 308 | 6.0 | 9.0 | 0.00 | 1.06 | 0.24 | 55 | 1009.0 |
| 20260506200030 | 55 | 305 | 3.0 | 11.0 | 0.00 | 1.06 | 0.24 | 58 | 1009.0 |
| 20260506195026 | 55 | 9 | 5.0 | 9.0 | 0.00 | 1.06 | 0.24 | 59 | 1009.2 |
| 20260506194035 | 55 | 45 | 3.0 | 9.0 | 0.00 | 1.06 | 0.24 | 59 | 1009.3 |
| 20260506193604 | 55 | 303 | 5.0 | 9.0 | 0.00 | 1.06 | 0.24 | 59 | 1009.3 |
| 20260506192545 | 55 | 9 | 4.0 | 9.0 | 0.00 | 1.06 | 0.24 | 58 | 1009.1 |
| 20260506192052 | 55 | 340 | 2.0 | 10.0 | 0.00 | 1.06 | 0.24 | 58 | 1009.1 |
| 20260506191612 | 56 | 355 | 5.0 | 10.0 | 0.00 | 1.06 | 0.24 | 58 | 1009.1 |
| 20260506190536 | 56 | 301 | 4.0 | 9.0 | 0.00 | 1.06 | 0.24 | 59 | 1008.9 |
| 20260506190101 | 56 | 360 | 5.0 | 11.0 | 0.00 | 1.06 | 0.24 | 58 | 1008.9 |
| 20260506185038 | 57 | 335 | 5.0 | 10.0 | 0.00 | 1.06 | 0.24 | 59 | 1009.0 |
| 20260506184557 | 56 | 351 | 3.0 | 9.0 | 0.00 | 1.06 | 0.24 | 59 | 1009.0 |
| 20260506184107 | 56 | 322 | 6.0 | 11.0 | 0.00 | 1.06 | 0.24 | 59 | 1009.0 |
| 20260506183609 | 56 | 284 | 6.0 | 11.0 | 0.00 | 1.06 | 0.24 | 60 | 1009.0 |
| 20260506183117 | 56 | 199 | 4.0 | 10.0 | 0.00 | 1.06 | 0.24 | 60 | 1009.0 |
| 20260506182607 | 56 | 329 | 5.0 | 10.0 | 0.00 | 1.06 | 0.24 | 60 | 1009.1 |
| 20260506182054 | 56 | 321 | 5.0 | 10.0 | 0.00 | 1.06 | 0.24 | 60 | 1009.1 |
| 20260506181025 | 57 | 336 | 5.0 | 10.0 | 0.00 | 1.06 | 0.24 | 61 | 1009.1 |
| 20260506180532 | 56 | 333 | 3.0 | 16.0 | 0.00 | 1.06 | 0.24 | 61 | 1009.1 |
| 20260506175540 | 56 | 325 | 8.0 | 14.0 | 0.00 | 1.06 | 0.24 | 61 | 1009.0 |
| 20260506174522 | 56 | 284 | 5.0 | 10.0 | 0.00 | 1.06 | 0.24 | 64 | 1009.0 |
| 20260506174049 | 56 | 360 | 3.0 | 10.0 | 0.00 | 1.06 | 0.24 | 64 | 1009.1 |
| 20260506173032 | 56 | 241 | 3.0 | 10.0 | 0.00 | 1.06 | 0.24 | 65 | 1009.1 |
| 20260506172550 | 56 | 44 | 5.0 | 8.0 | 0.00 | 1.06 | 0.24 | 66 | 1009.0 |
| 20260506172044 | 56 | 360 | 2.0 | 9.0 | 0.00 | 1.06 | 0.24 | 68 | 1009.0 |
| 20260506171550 | 55 | 355 | 5.0 | 9.0 | 0.00 | 1.06 | 0.24 | 67 | 1009.0 |
| 20260506171105 | 55 | 250 | 3.0 | 10.0 | 0.00 | 1.06 | 0.24 | 68 | 1009.1 |
| 20260506170624 | 55 | 305 | 5.0 | 9.0 | 0.00 | 1.06 | 0.24 | 67 | 1009.1 |
| 20260506170021 | 55 | 299 | 5.0 | 7.0 | 0.00 | 1.06 | 0.24 | 69 | 1009.1 |